Stations météo

réclame
Mon MeteoGroup
Jaen, Espagne (8417): Température de l'air & dewpoint: 01.08.2020 22:00:00 - 07.08.2020 22:00:00 (CEST)Jaen, Espagne (8417): Vitesse du vent: 01.08.2020 22:00:00 - 07.08.2020 22:00:00 (CEST)Jaen, Espagne (8417): Direction du vent: 01.08.2020 22:00:00 - 07.08.2020 22:00:00 (CEST)Jaen, Espagne (8417): reduced air pressure: 01.08.2020 22:00:00 - 07.08.2020 22:00:00 (CEST)Jaen, Espagne (8417): visibility: 01.08.2020 22:00:00 - 07.08.2020 22:00:00 (CEST)Jaen, Espagne (8417): Quantités de précipitations: 01.08.2020 22:00:00 - 07.08.2020 22:00:00 (CEST)
Date & Time tt [°C] td [°C] ff [km/h] ff [knt] dd ppp [hPa] vv [km] rr [mm]
07.08.2020 22:00:00 - - - - - - - -
07.08.2020 21:00:00 34,8 11,9 13 7 W 1013,1 20 0,0
07.08.2020 20:00:00 36,6 13,4 15 8 WNW 1012,2 20 -
07.08.2020 19:00:00 37,7 13,7 16 9 NW 1011,7 20 0,0
07.08.2020 18:00:00 38,3 12,8 16 9 NW 1011,8 20 0,0
07.08.2020 17:00:00 38,7 12,5 16 9 NNW 1012,0 20 -
07.08.2020 16:00:00 38,4 12,9 11 6 NNW 1012,5 20 0,0
07.08.2020 15:00:00 37,2 13,3 9 5 NNW 1013,1 19 0,0
07.08.2020 14:00:00 35,9 12,8 8 4 NNW 1013,7 20 -
07.08.2020 13:00:00 34,3 12,6 5 3 NNW 1014,4 20 0,0
07.08.2020 12:00:00 32,0 12,3 5 3 NNE 1015,2 20 0,0
07.08.2020 11:00:00 30,2 12,1 9 5 N 1015,6 20 -
07.08.2020 10:00:00 28,2 11,3 5 3 NNW 1015,8 20 0,0
07.08.2020 09:00:00 27,9 11,0 5 3 E 1015,3 20 0,0
07.08.2020 08:00:00 27,4 11,0 11 6 SE 1015,1 20 -
07.08.2020 07:00:00 27,2 11,2 15 8 SE 1014,8 20 0,0
07.08.2020 06:00:00 25,6 11,0 8 4 SE 1015,3 20 0,0
07.08.2020 05:00:00 25,6 10,2 9 5 SE 1015,6 20 -
07.08.2020 04:00:00 26,0 10,6 5 3 SW 1015,0 20 0,0
07.08.2020 03:00:00 26,9 10,1 11 6 ESE 1015,1 20 0,0
07.08.2020 02:00:00 28,8 10,5 4 2 ENE 1014,4 20 -
07.08.2020 01:00:00 30,6 10,0 5 3 WNW 1013,6 20 0,0
07.08.2020 00:00:00 32,1 10,7 5 3 S 1012,7 16 0,0
06.08.2020 23:00:00 32,7 11,3 4 2 SSE 1011,5 20 -
06.08.2020 22:00:00 33,8 11,0 11 6 W 1010,5 20 0,0
06.08.2020 21:00:00 36,3 11,9 5 3 W 1009,1 20 0,0
06.08.2020 20:00:00 38,3 11,4 9 5 N 1008,3 20 -
06.08.2020 19:00:00 39,0 11,2 11 6 NNW 1008,0 20 0,0
06.08.2020 18:00:00 39,8 11,0 9 5 NW 1008,0 20 0,0
06.08.2020 17:00:00 39,6 11,7 8 4 E 1008,1 20 -
06.08.2020 16:00:00 38,8 11,8 13 7 NW 1008,8 20 0,0
06.08.2020 15:00:00 38,4 12,2 8 4 E 1009,3 20 0,0
06.08.2020 14:00:00 36,4 11,9 9 5 ESE 1010,3 20 -
06.08.2020 13:00:00 35,1 12,1 5 3 E 1011,0 20 0,0
06.08.2020 12:00:00 33,1 12,1 5 3 NE 1011,8 20 0,0
06.08.2020 11:00:00 31,1 13,4 11 6 ESE 1012,2 20 -
06.08.2020 10:00:00 29,2 13,4 11 6 ESE 1012,5 20 0,0
06.08.2020 09:00:00 27,0 13,0 5 3 NE 1012,6 20 0,0
06.08.2020 08:00:00 24,2 11,2 4 2 SE 1012,9 20 -
06.08.2020 07:00:00 24,1 10,7 2 1 SE 1012,7 20 0,0
06.08.2020 06:00:00 25,0 11,5 8 4 SE 1012,0 20 0,0
06.08.2020 05:00:00 26,3 10,8 2 1 NNW 1011,8 20 -
06.08.2020 04:00:00 27,2 10,4 4 2 WSW 1011,3 20 0,0
06.08.2020 03:00:00 29,2 10,3 8 4 S 1010,8 20 0,0
06.08.2020 02:00:00 30,0 10,5 15 8 S 1010,2 20 -
06.08.2020 01:00:00 30,5 10,5 15 8 S 1009,8 20 0,0
06.08.2020 00:00:00 31,5 10,8 5 3 SSW 1009,4 20 0,0
05.08.2020 23:00:00 32,1 10,7 13 7 WSW 1009,1 20 -
05.08.2020 22:00:00 32,4 11,0 11 6 W 1008,5 20 0,0
05.08.2020 21:00:00 34,6 12,9 9 5 NNW 1007,3 20 0,0
05.08.2020 20:00:00 36,1 13,0 5 3 NNW 1006,5 20 -
05.08.2020 19:00:00 35,9 14,0 2 1 E 1006,7 20 0,0
05.08.2020 18:00:00 36,7 14,1 5 3 WSW 1006,6 20 0,0
05.08.2020 17:00:00 36,8 14,2 4 2 N 1006,9 20 -
05.08.2020 16:00:00 36,1 14,1 15 8 NNW 1007,5 20 0,0
05.08.2020 15:00:00 35,8 14,5 11 6 N 1008,1 20 0,0
05.08.2020 14:00:00 34,6 15,0 5 3 N 1009,2 20 -
05.08.2020 13:00:00 32,9 16,3 5 3 N 1010,1 20 0,0
05.08.2020 12:00:00 30,6 16,2 8 4 E 1011,0 20 0,0
05.08.2020 11:00:00 28,9 15,8 8 4 E 1011,6 20 -
05.08.2020 10:00:00 - - - - - - - -
05.08.2020 09:00:00 25,0 14,8 4 2 E 1012,3 20 0,0
05.08.2020 08:00:00 23,5 14,2 2 1 SSE 1012,4 20 -
05.08.2020 07:00:00 23,7 14,1 2 1 W 1011,9 20 0,0
05.08.2020 06:00:00 24,1 14,2 4 2 S 1011,4 20 0,0
05.08.2020 05:00:00 25,0 14,2 5 3 WNW 1011,3 20 -
05.08.2020 04:00:00 25,7 13,5 4 2 S 1011,0 20 0,0
05.08.2020 03:00:00 27,0 13,7 9 5 W 1010,9 20 0,0
05.08.2020 02:00:00 28,9 13,2 4 2 WSW 1010,5 20 -
05.08.2020 01:00:00 29,5 12,9 9 5 WSW 1010,2 20 0,0
05.08.2020 00:00:00 29,9 13,2 11 6 WSW 1009,8 20 0,0
04.08.2020 23:00:00 30,1 12,1 11 6 W 1009,7 20 -
04.08.2020 22:00:00 30,8 11,2 9 5 W 1009,3 20 0,0
04.08.2020 21:00:00 32,7 10,7 5 3 WNW 1008,6 20 0,0
04.08.2020 20:00:00 34,4 10,3 8 4 NW 1008,0 20 -
04.08.2020 19:00:00 35,0 10,1 15 8 NNW 1007,8 20 0,0
04.08.2020 18:00:00 35,1 10,2 11 6 W 1008,1 20 0,0
04.08.2020 17:00:00 35,0 10,8 4 2 E 1008,3 20 -
04.08.2020 16:00:00 34,6 11,7 11 6 NW 1009,1 20 0,0
04.08.2020 15:00:00 34,0 11,8 13 7 WNW 1009,7 20 0,0
04.08.2020 14:00:00 33,5 13,0 13 7 N 1010,3 20 -
04.08.2020 13:00:00 31,9 13,6 8 4 NNW 1010,9 20 0,0
04.08.2020 12:00:00 - - - - - - - -
04.08.2020 11:00:00 28,0 11,5 5 3 ENE 1012,2 20 -
04.08.2020 10:00:00 26,3 10,4 8 4 NNE 1012,6 20 0,0
04.08.2020 09:00:00 25,3 13,2 13 7 SSE 1012,1 20 0,0
04.08.2020 08:00:00 22,8 8,9 9 5 SE 1012,8 20 -
04.08.2020 07:00:00 22,1 8,9 9 5 ESE 1012,9 20 0,0
04.08.2020 06:00:00 22,2 9,4 2 1 W 1012,5 20 0,0
04.08.2020 05:00:00 23,2 9,2 5 3 S 1012,2 20 -
04.08.2020 04:00:00 23,7 9,3 4 2 WSW 1012,1 20 0,0
04.08.2020 03:00:00 24,8 9,1 2 1 SSW 1012,1 20 0,0
04.08.2020 02:00:00 26,3 8,7 2 1 S 1011,9 20 -
04.08.2020 01:00:00 28,3 9,1 8 4 WSW 1011,4 20 0,0
04.08.2020 00:00:00 28,9 9,1 18 10 W 1011,0 20 0,0
03.08.2020 23:00:00 29,4 9,0 15 8 W 1010,6 20 -
03.08.2020 22:00:00 29,2 8,3 9 5 WSW 1009,8 20 0,0
03.08.2020 21:00:00 32,0 8,9 5 3 W 1008,8 20 0,0
03.08.2020 20:00:00 33,5 8,9 9 5 NW 1008,4 20 -
03.08.2020 19:00:00 34,2 8,8 - - - 1008,3 20 0,0
03.08.2020 18:00:00 34,1 8,7 5 3 N 1008,7 20 0,0
03.08.2020 17:00:00 33,9 9,2 9 5 N 1009,2 20 -
03.08.2020 16:00:00 33,2 9,3 9 5 NNW 1009,9 20 0,0
03.08.2020 15:00:00 32,5 10,5 8 4 NNW 1010,8 20 0,0
03.08.2020 14:00:00 30,8 11,2 15 8 NNW 1011,6 20 -
03.08.2020 13:00:00 29,7 11,2 16 9 NNW 1012,3 20 0,0
03.08.2020 12:00:00 28,4 11,9 16 9 N 1012,7 20 0,0
03.08.2020 11:00:00 27,9 11,0 5 3 NE 1012,8 20 -
03.08.2020 10:00:00 25,2 9,1 8 4 N 1013,3 20 0,0
03.08.2020 09:00:00 - - - - - - - -
03.08.2020 08:00:00 - - - - - - - -
03.08.2020 07:00:00 - - - - - - - -
03.08.2020 06:00:00 - - - - - - - -
03.08.2020 05:00:00 - - - - - - - -
03.08.2020 04:00:00 - - - - - - - -
03.08.2020 03:00:00 - - - - - - - -
03.08.2020 02:00:00 - - - - - - - -
03.08.2020 01:00:00 - - - - - - - -
03.08.2020 00:00:00 - - - - - - - -
02.08.2020 23:00:00 - - - - - - - -
02.08.2020 22:00:00 - - - - - - - -
02.08.2020 21:00:00 - - - - - - - -
02.08.2020 20:00:00 - - - - - - - -
02.08.2020 19:00:00 - - - - - - - -
02.08.2020 18:00:00 - - - - - - - -
02.08.2020 17:00:00 - - - - - - - -
02.08.2020 16:00:00 - - - - - - - -
02.08.2020 15:00:00 - - - - - - - -
02.08.2020 14:00:00 - - - - - - - -
02.08.2020 13:00:00 - - - - - - - -
02.08.2020 12:00:00 - - - - - - - -
02.08.2020 11:00:00 - - - - - - - -
02.08.2020 10:00:00 - - - - - - - -
02.08.2020 09:00:00 - - - - - - - -
02.08.2020 08:00:00 - - - - - - - -
02.08.2020 07:00:00 - - - - - - - -
02.08.2020 06:00:00 - - - - - - - -
02.08.2020 05:00:00 - - - - - - - -
02.08.2020 04:00:00 - - - - - - - -
02.08.2020 03:00:00 - - - - - - - -
02.08.2020 02:00:00 - - - - - - - -
02.08.2020 01:00:00 - - - - - - - -
02.08.2020 00:00:00 - - - - - - - -
01.08.2020 23:00:00 - - - - - - - -
01.08.2020 22:00:00 - - - - - - - -

tt = Température de l'air
td = dewpoint
ff = Vitesse du vent
dd = Direction du vent
ppp = reduced air pressure
vv = visibility
rr = Quantités de précipitations

stations d'obs. à proximité